User: anonymous   Login
Location: *
(51.5000°N, 0.1100°W)
Time: 02:29:01
(UTC+00:00)
Language:

Meteor 1-4 Rocket - Orbit

View from above orbital plane
View from above orbital plane
View from above satellite
View from above satellite

Ground track
Ground track

The orbit data is extracted from the following two-line orbital elements,

1 04394U 70037B   24200.54822296  .00079763  00000-0  64995-3 0  9991
2 04394  81.2250 185.4202 0017642 187.6927 172.4063 15.70140641962157
Epoch (UTC): 18 July 2024 13:09:26
Eccentricity: 0.0017642
inclination: 81.2250°
perigee height: 346 km
apogee height: 370 km
right ascension of ascending node: 185.4202°
argument of perigee: 187.6927°
revolutions per day: 15.70140641
mean anomaly at epoch: 172.4063°
orbit number at epoch: 96215

The dashed part of the orbit path shows where the satellite is in the earth's shadow,  

DLR